Torna al catalogo

FENGYUN 1C DEB

AttivoPO
NORAD 30248·DEBRIS·🇨🇳 China

Lanciato May 10, 1999 da Taiyuan Satellite Launch Center

Loading…

Prossimi Passaggi (prossime 24 ore)

TLE

AggiornatoSource: Space-Track

Epoca: Sep 13, 2026, 13:38 UTC

1 30248U 99025XH  26256.56857440  .00010082  00000-0  17391-2 0  9996
2 30248  99.0856 114.3435 0028054  31.3655 328.9213 14.68452966 14092

Traccia FENGYUN 1C DEB in tempo reale con AllMySat

Download on the App Store